Theta_e
289 289 289 288 288 288 287 286 285 285 285 285 284 284 284 284 284 283 283 283 282 282 281 281 280 280 280 279 279 279 279 279 278 278 278 278 277 277 277 277 276 276
289 289 289 289 288 288 287 287 286 285 285 285 285 285 284 284 283 283 282 282 282 281 281 280 280 280 279 279 279 278 278 278 278 279 278 277 277 277 277 277 276 276
289 289 288 288 288 288 287 286 286 285 285 285 284 284 284 284 283 283 282 282 282 281 281 280 280 280 279 279 279 279 278 278 277 277 277 277 277 276 276 276 276 276
289 289 289 289 288 288 287 286 285 285 285 284 284 284 284 284 283 282 282 283 282 281 281 280 280 280 279 279 279 278 278 278 278 277 277 276 276 276 276 276 276 275
289 289 289 289 289 288 286 286 285 285 285 285 284 284 283 283 283 282 282 282 282 281 280 280 279 279 279 278 278 278 277 277 277 277 276 276 276 276 276 276 275 275
289 289 289 289 289 288 286 286 285 285 284 284 284 284 283 283 283 282 282 282 281 281 280 279 279 279 279 278 278 278 277 277 276 276 276 276 275 276 276 275 275 274
288 288 288 289 288 287 287 286 286 285 285 284 283 283 283 283 282 282 282 282 281 281 280 279 279 279 278 278 277 277 277 277 276 276 276 275 275 275 275 275 275 274
288 288 288 287 287 287 286 286 285 285 285 284 283 283 283 283 283 282 282 281 281 280 280 279 279 279 278 278 277 277 276 276 276 276 276 275 275 274 274 275 274 274
288 287 287 286 286 286 286 286 285 285 284 283 283 283 283 283 282 282 282 281 281 280 280 279 279 279 278 278 277 277 276 276 276 276 275 275 274 274 274 274 274 274
287 287 286 286 286 286 286 286 285 285 284 283 283 283 282 282 282 282 281 281 280 280 279 279 279 278 278 278 277 277 276 276 275 275 275 275 274 274 274 274 274 273
286 286 286 286 286 286 286 286 285 284 283 283 283 282 282 282 282 282 281 281 280 280 279 279 279 278 278 277 277 277 276 276 275 275 275 275 275 274 275 274 273 273
286 286 286 286 286 286 286 286 285 284 283 283 283 282 282 281 281 281 281 280 280 280 280 279 279 278 278 277 277 276 276 276 275 275 275 274 274 274 274 273 273 273
286 286 286 286 286 286 286 285 285 284 283 283 283 282 281 281 281 280 281 281 280 280 279 279 278 278 277 277 276 276 275 275 274 274 274 274 273 273 273 273 273 273
286 286 286 286 286 285 285 285 284 283 283 283 282 281 281 281 280 280 280 280 280 279 279 278 278 277 277 276 276 275 275 274 274 274 273 273 273 273 273 272 272 272
287 286 286 285 284 284 284 283 283 283 282 282 281 281 281 281 280 280 279 279 279 278 278 277 277 276 276 276 275 275 274 274 274 273 273 272 272 272 272 272 272 272
286 285 284 284 283 283 283 283 283 282 281 281 281 281 280 280 279 279 279 278 278 277 277 277 276 276 278 280 279 275 274 274 273 273 272 272 272 271 271 271 271 272
284 284 283 283 283 283 283 283 282 282 281 280 280 280 279 278 278 278 278 277 277 276 276 276 276 276 280 282 281 280 275 274 273 273 272 272 271 271 270 271 271 272
284 284 283 283 283 283 282 282 281 280 279 279 279 278 278 278 277 277 277 277 277 276 275 275 275 278 282 282 282 281 279 274 273 272 272 272 271 271 271 271 271 271
283 283 283 283 283 283 282 281 280 279 279 278 278 278 278 277 277 277 276 276 276 275 275 275 275 280 282 283 283 282 281 276 273 272 272 272 272 271 271 271 272 272
283 283 283 282 281 281 280 280 279 279 279 278 278 277 277 276 276 276 276 275 275 275 275 275 274 279 283 283 283 283 281 278 272 272 272 272 272 271 272 272 273 273
283 282 282 281 279 279 278 278 278 278 278 278 277 277 276 276 276 275 275 275 275 275 275 274 274 280 283 284 284 283 282 278 272 272 272 271 271 272 273 273 274 275
280 280 280 279 279 278 278 278 277 278 277 277 277 277 277 276 276 276 276 275 275 275 274 273 274 281 283 284 284 284 283 274 272 272 271 271 272 273 274 275 275 276
281 280 279 278 278 278 278 277 277 277 277 277 276 276 276 276 276 276 276 275 275 274 274 273 273 279 283 284 284 284 281 272 272 272 272 272 273 274 274 275 275 275
278 277 278 277 276 277 277 277 277 276 276 276 276 275 275 275 275 275 274 274 274 273 274 273 272 278 283 284 284 284 280 273 272 272 272 273 273 274 274 274 274 276
275 276 277 277 277 277 277 277 277 276 276 275 275 275 275 275 273 273 273 273 273 273 275 273 272 277 283 284 284 284 280 274 273 272 272 272 273 272 272 273 273 276
275 276 276 276 277 276 276 277 277 275 274 274 274 274 273 273 272 272 272 272 272 272 273 273 272 274 280 284 284 284 282 275 274 273 272 272 272 271 270 271 272 273
Wind_Speed
12 12 13 13 13 11 11 12 11 12 12 11 13 13 13 12 10 13 13 11 12 12 11 11 10 9 9 9 8 7 7 8 6 6 8 8 7 8 8 8 7 7
17 16 12 11 10 10 12 13 12 12 12 12 11 10 9 10 12 12 13 12 11 11 10 10 11 11 10 10 10 9 8 8 9 5 8 9 7 7 8 8 7 6
13 14 16 17 17 16 13 10 10 11 11 11 9 9 10 10 11 11 12 12 12 11 11 11 11 11 11 10 10 10 9 9 10 8 8 9 7 8 7 7 6 8
16 17 17 16 13 13 12 11 10 10 9 9 13 11 9 9 11 12 12 13 12 11 11 10 12 11 11 11 11 10 10 9 8 8 8 6 7 7 7 7 6 6
19 17 15 14 13 11 10 13 14 13 13 13 8 9 11 11 12 12 12 12 12 11 11 11 10 11 11 10 11 10 9 9 8 9 9 9 7 8 7 7 8 8
13 15 16 15 15 14 13 14 14 13 13 12 14 11 11 12 12 13 14 14 12 12 11 11 12 11 11 11 11 10 10 10 9 10 10 10 8 7 7 8 8 8
16 15 17 14 12 13 14 14 13 14 14 13 9 12 13 14 14 14 14 15 14 14 14 13 13 12 11 11 11 11 10 10 10 11 11 9 8 8 6 8 8 8
15 13 12 11 13 13 14 13 13 14 14 12 15 14 14 15 15 13 13 15 15 15 14 14 14 14 13 12 13 13 12 9 10 11 11 9 9 9 9 8 8 9
12 10 11 13 14 13 15 15 14 13 12 14 15 13 13 14 15 15 15 14 14 14 14 14 15 15 14 14 14 14 14 12 11 13 13 12 12 12 11 9 9 9
11 12 11 13 14 15 17 16 14 13 12 14 14 12 14 13 13 14 14 15 15 15 15 15 15 14 14 14 14 14 13 14 12 12 12 11 12 11 11 10 11 9
12 12 13 14 16 15 17 16 14 13 12 14 13 13 14 13 13 13 14 15 15 17 17 16 16 16 15 14 13 12 13 13 13 12 12 12 11 11 10 11 10 10
13 12 14 16 18 17 17 16 15 13 13 12 14 15 13 14 14 13 14 16 16 16 15 15 14 14 15 15 14 13 12 12 11 12 11 11 10 9 10 10 10 9
14 15 16 17 17 16 13 11 13 13 13 14 13 14 14 13 14 15 13 15 15 14 14 15 14 14 13 14 14 13 13 13 12 11 10 9 9 9 9 9 8 8
15 16 17 17 14 10 10 11 11 11 13 12 11 13 14 15 15 15 13 12 12 13 13 12 13 13 13 14 14 14 13 13 12 12 11 10 9 9 8 9 9 9
12 12 11 9 9 10 10 11 12 12 11 11 12 12 11 13 13 13 13 13 12 13 13 12 13 14 13 14 14 13 12 13 13 12 11 11 9 9 8 8 8 7
9 7 7 8 9 12 13 12 11 12 13 13 14 14 12 12 12 13 13 14 13 13 12 11 12 10 13 20 17 14 14 11 10 11 11 11 11 10 8 8 8 7
7 9 9 11 12 11 9 12 13 12 13 12 12 12 13 12 12 13 13 13 14 14 14 12 11 10 19 22 22 21 14 12 12 11 11 11 10 10 10 9 8 7
9 9 10 12 9 10 10 10 8 9 11 11 11 12 12 11 13 14 13 13 12 12 13 12 11 13 23 23 23 24 19 12 11 10 10 10 10 10 9 8 8 8
6 8 9 9 10 10 9 8 10 10 11 11 14 12 9 11 14 13 13 12 12 13 13 12 10 17 23 24 24 24 24 16 10 10 11 10 11 10 9 9 8 8
6 7 8 8 5 6 6 8 10 12 11 9 8 8 11 11 11 13 12 13 13 13 12 11 11 18 24 25 24 25 24 18 10 11 11 11 11 11 10 10 10 9
4 5 6 4 4 5 5 7 8 6 7 8 9 11 12 13 13 13 12 12 12 11 11 11 10 20 24 25 25 25 25 18 10 10 9 10 10 10 10 10 10 9
3 4 4 3 4 4 6 7 6 8 9 8 8 8 7 7 8 9 12 13 12 12 11 11 10 22 23 25 25 25 25 13 11 11 11 10 10 10 10 10 10 10
3 4 4 4 5 6 7 7 7 8 7 5 7 7 8 9 10 10 10 11 12 11 12 10 9 19 24 24 25 27 19 11 12 10 10 11 11 10 10 10 10 9
3 3 4 4 5 8 9 8 6 5 6 6 9 8 9 8 6 6 5 7 10 11 12 12 11 17 24 24 25 27 18 14 12 11 11 10 10 10 8 8 10 16
3 3 4 4 5 6 6 7 7 8 5 5 6 6 7 6 6 7 7 7 8 10 11 11 10 15 24 25 26 27 18 12 12 11 11 10 10 9 8 8 9 12
3 4 4 5 5 4 3 4 3 4 5 6 5 5 6 6 6 6 8 6 6 8 9 11 11 11 16 25 26 27 23 13 11 12 12 12 10 10 10 8 8 8
Wind_Direction
198 198 202 201 205 203 195 194 196 196 197 192 196 199 196 195 173 189 196 191 193 192 188 184 180 177 177 176 178 174 180 185 180 176 179 173 176 171 175 176 174 171
201 199 200 202 205 202 203 197 195 195 198 197 202 191 190 179 188 183 189 193 191 196 187 183 182 181 177 177 178 177 178 179 184 178 178 181 180 174 180 177 174 161
202 200 200 202 204 203 199 191 190 198 198 201 191 190 190 182 178 183 187 190 192 192 189 187 183 183 180 179 177 179 180 180 185 180 180 186 172 180 180 171 171 175
207 205 205 208 206 200 191 186 192 194 194 188 199 192 178 181 179 182 186 188 192 192 189 185 188 184 182 180 175 184 183 185 183 169 177 172 180 175 177 171 171 173
206 207 206 207 206 198 185 192 195 196 194 198 178 179 182 178 181 182 184 189 191 191 186 188 186 187 182 180 181 180 180 181 175 174 178 181 180 176 177 172 176 181
211 210 209 205 200 194 193 197 198 194 193 187 193 180 184 181 183 185 185 185 188 187 186 186 187 188 184 183 181 186 180 180 180 175 180 181 178 182 173 181 178 182
211 209 211 206 200 199 202 203 197 192 191 194 168 186 182 186 186 189 186 186 183 186 187 187 186 186 186 183 185 186 185 182 174 180 180 179 172 180 181 179 184 184
215 210 209 202 203 202 206 204 201 197 193 177 187 189 183 187 188 187 187 185 184 187 190 188 187 187 185 184 188 187 184 179 177 180 181 178 174 183 184 186 183 183
216 211 205 204 203 204 206 205 205 200 187 189 191 186 188 188 188 186 186 184 186 186 187 191 189 187 187 188 191 188 183 180 180 180 181 179 183 188 185 180 182 190
214 214 204 205 205 208 208 207 203 199 191 194 192 184 186 191 187 186 181 185 187 188 186 191 191 189 187 191 191 187 183 182 179 183 185 185 187 184 182 184 188 184
214 206 209 210 211 209 211 206 202 198 193 196 188 191 190 183 188 183 184 186 190 190 189 190 192 188 184 186 188 187 185 180 181 182 185 187 188 186 183 183 184 191
213 206 212 213 214 214 211 203 200 196 194 196 193 192 187 189 183 185 189 191 192 192 190 189 188 188 187 184 183 181 182 182 180 182 185 185 184 183 181 185 187 185
210 209 211 213 215 215 209 201 200 198 194 197 194 193 187 186 188 188 192 191 193 189 189 187 186 185 184 182 180 181 181 179 179 181 182 179 182 181 182 184 184 183
216 215 213 214 212 210 205 201 197 196 199 195 188 192 191 190 189 191 190 189 190 189 189 183 182 184 184 182 180 179 179 180 178 177 176 177 177 180 181 184 186 186
227 224 224 217 205 203 201 197 196 196 191 189 191 195 192 192 189 186 182 188 188 187 183 183 184 186 184 181 178 178 179 178 176 175 173 173 174 179 184 183 185 189
236 235 224 213 206 204 202 196 192 190 188 191 192 192 190 186 185 186 187 186 183 184 183 183 189 187 185 182 178 173 174 174 171 173 173 172 173 176 181 185 187 187
215 216 208 212 214 208 202 195 194 191 190 190 190 188 187 183 182 185 187 185 186 183 183 187 188 186 182 182 180 174 170 171 171 172 172 172 174 174 180 182 183 185
218 215 210 216 207 210 204 201 189 183 187 188 185 186 188 181 186 188 185 185 184 184 187 186 187 181 182 182 178 175 171 169 169 169 169 172 173 176 177 174 177 178
221 216 220 217 210 206 197 188 188 189 189 186 192 189 172 183 190 182 188 182 182 183 188 186 186 182 183 181 180 177 173 166 168 165 168 172 174 174 171 170 173 180
224 221 225 224 212 204 194 194 193 198 194 187 174 171 185 187 185 187 181 183 183 184 185 185 184 184 184 183 180 177 173 165 164 164 169 171 171 172 171 174 178 179
246 236 240 226 199 196 196 201 201 196 184 185 183 185 186 188 186 187 188 182 182 181 182 184 184 185 185 183 180 176 173 159 161 163 165 170 170 171 175 175 178 179
255 244 233 201 186 192 198 200 194 193 191 187 187 193 193 184 192 189 185 185 182 178 178 182 180 187 187 184 180 177 170 155 163 166 167 169 170 172 176 179 179 182
269 235 219 190 180 188 199 199 193 197 197 177 186 194 192 195 195 191 191 184 178 178 178 178 175 189 188 185 181 177 166 155 164 165 169 169 175 174 175 179 181 172
251 225 225 204 192 201 201 202 191 189 188 177 188 188 195 198 188 187 189 186 182 182 180 175 180 188 189 186 181 181 164 161 165 167 168 170 171 175 172 176 172 172
227 208 213 209 215 218 204 200 194 192 179 166 184 182 191 177 179 185 185 186 189 183 175 172 175 188 191 188 184 183 167 162 163 166 166 171 169 169 170 168 177 183
232 219 209 200 211 212 206 205 168 147 166 174 182 178 174 172 178 178 181 187 177 178 183 177 176 187 194 191 188 187 170 161 164 166 172 171 172 172 167 177 173 181